contact:dominique.lefevre@mio.osupytheas.fr, maurice.libes@osupytheas.fr, didier.mallarino@osupytheas.fr
Project:EMSO http://www.emso-fr.org/EMSO-France
Depth: 2436.0 m
Title:EMSO Ligure Ouest : Data MII capteur CSTAR
DateTime,Latitude,Longitude,Instrument_Serial,Reference_Counts,Signal_Counts,Corrected_Signal_raw_counts,Calculated_Beam_c_inverse_meters,Internal_thermistor_counts
DateTime,Latitude,Longitude,Instrument_Serial,Reference_Counts,Signal_Counts,Corrected_Signal_raw_counts,Calculated_Beam_c_inverse_meters,Internal_thermistor_counts
2022-09-30T00:02:39,42.805,6.029,CST-1368DR,4563,5033,11739,01.142,551
2022-09-30T00:05:41,42.805,6.029,CST-1368DR,4562,5034,11745,01.139,551
2022-09-30T00:08:43,42.805,6.029,CST-1368DR,4562,5031,11738,01.142,551
2022-09-30T00:11:44,42.805,6.029,CST-1368DR,4563,5033,11740,01.141,551
2022-09-30T00:14:46,42.805,6.029,CST-1368DR,4562,5035,11747,01.139,551
2022-09-30T00:17:47,42.805,6.029,CST-1368DR,4563,5034,11741,01.141,551
2022-09-30T00:20:49,42.805,6.029,CST-1368DR,4562,5034,11745,01.139,551
2022-09-30T00:23:51,42.805,6.029,CST-1368DR,4562,5033,11742,01.140,551
2022-09-30T00:26:52,42.805,6.029,CST-1368DR,4563,5034,11741,01.141,551
2022-09-30T00:29:54,42.805,6.029,CST-1368DR,4562,5031,11738,01.142,551
2022-09-30T00:32:55,42.805,6.029,CST-1368DR,4563,5031,11736,01.143,551
2022-09-30T00:35:57,42.805,6.029,CST-1368DR,4562,5031,11737,01.142,551
2022-09-30T00:38:58,42.805,6.029,CST-1368DR,4562,5030,11735,01.143,551
2022-09-30T00:42:00,42.805,6.029,CST-1368DR,4562,5033,11741,01.141,551
2022-09-30T00:45:02,42.805,6.029,CST-1368DR,4562,5034,11745,01.139,551
2022-09-30T00:48:03,42.805,6.029,CST-1368DR,4562,5032,11739,01.142,551
2022-09-30T00:51:05,42.805,6.029,CST-1368DR,4562,5030,11735,01.143,551
2022-09-30T00:54:06,42.805,6.029,CST-1368DR,4562,5031,11736,01.143,551
2022-09-30T00:57:08,42.805,6.029,CST-1368DR,4563,5042,11761,01.134,551
2022-09-30T01:00:10,42.805,6.029,CST-1368DR,4562,5034,11743,01.140,551
2022-09-30T01:03:11,42.805,6.029,CST-1368DR,4562,5032,11740,01.141,551
2022-09-30T01:06:13,42.805,6.029,CST-1368DR,4562,5033,11742,01.140,551
2022-09-30T01:09:14,42.805,6.029,CST-1368DR,4562,5034,11743,01.140,551
2022-09-30T01:12:16,42.805,6.029,CST-1368DR,4562,5032,11740,01.141,551
2022-09-30T01:15:17,42.805,6.029,CST-1368DR,4562,5033,11742,01.140,551
2022-09-30T01:18:19,42.805,6.029,CST-1368DR,4562,5033,11741,01.141,551
2022-09-30T01:21:21,42.805,6.029,CST-1368DR,4562,5031,11737,01.142,551
2022-09-30T01:24:22,42.805,6.029,CST-1368DR,4562,5032,11740,01.141,551
2022-09-30T01:27:24,42.805,6.029,CST-1368DR,4562,5031,11737,01.142,551
2022-09-30T01:30:25,42.805,6.029,CST-1368DR,4562,5027,11727,01.146,551
2022-09-30T01:33:27,42.805,6.029,CST-1368DR,4562,5028,11729,01.145,551
2022-09-30T01:36:28,42.805,6.029,CST-1368DR,4562,5027,11729,01.145,551
2022-09-30T01:39:30,42.805,6.029,CST-1368DR,4562,5028,11729,01.145,551
2022-09-30T01:42:32,42.805,6.029,CST-1368DR,4562,5028,11729,01.145,551
2022-09-30T01:45:33,42.805,6.029,CST-1368DR,4562,5026,11725,01.146,551
2022-09-30T01:48:35,42.805,6.029,CST-1368DR,4562,5032,11739,01.142,551
2022-09-30T01:51:36,42.805,6.029,CST-1368DR,4562,5033,11741,01.141,551
2022-09-30T01:54:38,42.805,6.029,CST-1368DR,4562,5026,11725,01.146,551
2022-09-30T01:57:40,42.805,6.029,CST-1368DR,4562,5032,11739,01.142,551
2022-09-30T02:00:41,42.805,6.029,CST-1368DR,4562,5029,11733,01.144,551
2022-09-30T02:03:43,42.805,6.029,CST-1368DR,4562,5030,11734,01.143,551
2022-09-30T02:06:44,42.805,6.029,CST-1368DR,4562,5031,11737,01.142,551
2022-09-30T02:09:46,42.805,6.029,CST-1368DR,4562,5036,11750,01.138,551
2022-09-30T02:12:47,42.805,6.029,CST-1368DR,4562,5033,11743,01.140,551
2022-09-30T02:15:49,42.805,6.029,CST-1368DR,4562,5034,11745,01.139,551
2022-09-30T02:18:51,42.805,6.029,CST-1368DR,4562,5031,11738,01.142,551
2022-09-30T02:21:52,42.805,6.029,CST-1368DR,4562,5031,11738,01.142,551
2022-09-30T02:24:54,42.805,6.029,CST-1368DR,4562,5033,11743,01.140,551
2022-09-30T02:27:55,42.805,6.029,CST-1368DR,4562,5040,11758,01.135,551
2022-09-30T02:30:57,42.805,6.029,CST-1368DR,4562,5033,11742,01.140,551
2022-09-30T02:33:59,42.805,6.029,CST-1368DR,4562,5034,11744,01.140,551
2022-09-30T02:37:00,42.805,6.029,CST-1368DR,4562,5033,11741,01.141,551
2022-09-30T02:40:02,42.805,6.029,CST-1368DR,4562,5033,11741,01.141,551
2022-09-30T02:43:03,42.805,6.029,CST-1368DR,4562,5032,11739,01.142,551
2022-09-30T02:46:05,42.805,6.029,CST-1368DR,4562,5033,11741,01.141,551
2022-09-30T02:49:06,42.805,6.029,CST-1368DR,4562,5032,11739,01.142,551
2022-09-30T02:52:08,42.805,6.029,CST-1368DR,4562,5033,11742,01.140,551
2022-09-30T02:55:10,42.805,6.029,CST-1368DR,4562,5032,11739,01.142,551
2022-09-30T02:58:11,42.805,6.029,CST-1368DR,4562,5033,11743,01.140,551
2022-09-30T03:01:13,42.805,6.029,CST-1368DR,4562,5031,11738,01.142,551
2022-09-30T03:04:14,42.805,6.029,CST-1368DR,4562,5030,11735,01.143,551
2022-09-30T03:07:16,42.805,6.029,CST-1368DR,4562,5034,11745,01.139,551
2022-09-30T03:10:17,42.805,6.029,CST-1368DR,4562,5039,11755,01.136,551
2022-09-30T03:13:19,42.805,6.029,CST-1368DR,4562,5037,11750,01.138,551
2022-09-30T03:16:21,42.805,6.029,CST-1368DR,4562,5034,11745,01.139,551
2022-09-30T03:19:22,42.805,6.029,CST-1368DR,4562,5034,11744,01.140,551
2022-09-30T03:22:24,42.805,6.029,CST-1368DR,4562,5035,11747,01.139,551
2022-09-30T03:25:25,42.805,6.029,CST-1368DR,4562,5033,11743,01.140,551
2022-09-30T03:28:27,42.805,6.029,CST-1368DR,4562,5033,11742,01.140,551
2022-09-30T03:31:28,42.805,6.029,CST-1368DR,4562,5035,11747,01.139,551
2022-09-30T03:34:30,42.805,6.029,CST-1368DR,4562,5034,11745,01.139,551
2022-09-30T03:37:32,42.805,6.029,CST-1368DR,4562,5033,11742,01.140,551
2022-09-30T03:40:33,42.805,6.029,CST-1368DR,4562,5036,11750,01.138,551
2022-09-30T03:43:35,42.805,6.029,CST-1368DR,4562,5035,11747,01.139,551
2022-09-30T03:46:36,42.805,6.029,CST-1368DR,4562,5033,11743,01.140,551
2022-09-30T03:49:38,42.805,6.029,CST-1368DR,4562,5034,11744,01.140,551
2022-09-30T03:52:40,42.805,6.029,CST-1368DR,4562,5031,11738,01.142,551
2022-09-30T03:55:41,42.805,6.029,CST-1368DR,4562,5031,11737,01.142,551
2022-09-30T03:58:43,42.805,6.029,CST-1368DR,4562,5031,11738,01.142,551
2022-09-30T04:01:44,42.805,6.029,CST-1368DR,4562,5033,11742,01.140,551
2022-09-30T04:04:46,42.805,6.029,CST-1368DR,4562,5030,11735,01.143,551
2022-09-30T04:07:47,42.805,6.029,CST-1368DR,4562,5034,11745,01.139,551
2022-09-30T04:10:49,42.805,6.029,CST-1368DR,4562,5036,11749,01.138,551
2022-09-30T04:13:51,42.805,6.029,CST-1368DR,4562,5034,11745,01.139,551
2022-09-30T04:16:52,42.805,6.029,CST-1368DR,4562,5034,11743,01.140,551
2022-09-30T04:19:54,42.805,6.029,CST-1368DR,4562,5035,11747,01.139,551
2022-09-30T04:22:55,42.805,6.029,CST-1368DR,4562,5033,11741,01.141,551
2022-09-30T04:25:57,42.805,6.029,CST-1368DR,4562,5034,11745,01.139,551
2022-09-30T04:28:59,42.805,6.029,CST-1368DR,4562,5035,11747,01.139,551
2022-09-30T04:32:00,42.805,6.029,CST-1368DR,4562,5033,11742,01.140,551
2022-09-30T04:35:02,42.805,6.029,CST-1368DR,4562,5035,11747,01.139,551
2022-09-30T04:38:03,42.805,6.029,CST-1368DR,4562,5033,11743,01.140,551
2022-09-30T04:41:05,42.805,6.029,CST-1368DR,4562,5034,11744,01.140,551
2022-09-30T04:44:06,42.805,6.029,CST-1368DR,4562,5033,11741,01.141,551
2022-09-30T04:47:08,42.805,6.029,CST-1368DR,4562,5033,11742,01.140,551
2022-09-30T04:50:10,42.805,6.029,CST-1368DR,4562,5040,11758,01.135,551
2022-09-30T04:53:11,42.805,6.029,CST-1368DR,4562,5034,11744,01.140,551
2022-09-30T04:56:13,42.805,6.029,CST-1368DR,4562,5033,11743,01.140,551
2022-09-30T04:59:14,42.805,6.029,CST-1368DR,4562,5034,11743,01.140,551
2022-09-30T05:02:16,42.805,6.029,CST-1368DR,4562,5034,11745,01.139,551
2022-09-30T05:05:17,42.805,6.029,CST-1368DR,4562,5034,11744,01.140,551
2022-09-30T05:08:19,42.805,6.029,CST-1368DR,4562,5033,11743,01.140,551
2022-09-30T05:11:21,42.805,6.029,CST-1368DR,4562,5033,11742,01.140,551
2022-09-30T05:14:22,42.805,6.029,CST-1368DR,4562,5031,11738,01.142,551
2022-09-30T05:17:24,42.805,6.029,CST-1368DR,4562,5033,11742,01.140,551
2022-09-30T05:20:25,42.805,6.029,CST-1368DR,4562,5039,11755,01.136,551
2022-09-30T05:23:27,42.805,6.029,CST-1368DR,4562,5033,11741,01.141,551
2022-09-30T05:26:29,42.805,6.029,CST-1368DR,4562,5035,11747,01.139,551
2022-09-30T05:29:30,42.805,6.029,CST-1368DR,4562,5040,11759,01.135,551
2022-09-30T05:32:32,42.805,6.029,CST-1368DR,4562,5037,11750,01.138,551
2022-09-30T05:35:33,42.805,6.029,CST-1368DR,4562,5033,11743,01.140,551
2022-09-30T05:38:35,42.805,6.029,CST-1368DR,4562,5037,11751,01.137,551
2022-09-30T05:41:36,42.805,6.029,CST-1368DR,4562,5032,11740,01.141,551
2022-09-30T05:44:38,42.805,6.029,CST-1368DR,4562,5034,11745,01.139,551
2022-09-30T05:47:40,42.805,6.029,CST-1368DR,4562,5035,11746,01.139,551
2022-09-30T05:50:41,42.805,6.029,CST-1368DR,4562,5034,11743,01.140,551
2022-09-30T05:53:43,42.805,6.029,CST-1368DR,4562,5034,11745,01.139,551
2022-09-30T05:56:44,42.805,6.029,CST-1368DR,4562,5036,11749,01.138,551
2022-09-30T05:59:46,42.805,6.029,CST-1368DR,4562,5031,11738,01.142,551
2022-09-30T06:02:47,42.805,6.029,CST-1368DR,4562,5033,11741,01.141,551
2022-09-30T06:05:49,42.805,6.029,CST-1368DR,4562,5036,11748,01.138,551
2022-09-30T06:08:51,42.805,6.029,CST-1368DR,4562,5034,11744,01.140,551
2022-09-30T06:11:52,42.805,6.029,CST-1368DR,4562,5038,11753,01.137,551
2022-09-30T06:14:54,42.805,6.029,CST-1368DR,4562,5041,11760,01.134,551
2022-09-30T06:17:55,42.805,6.029,CST-1368DR,4562,5039,11755,01.136,551
2022-09-30T06:20:57,42.805,6.029,CST-1368DR,4562,5039,11755,01.136,551
2022-09-30T06:23:59,42.805,6.029,CST-1368DR,4562,5038,11753,01.137,551
2022-09-30T06:27:00,42.805,6.029,CST-1368DR,4562,5040,11757,01.135,551
2022-09-30T06:30:02,42.805,6.029,CST-1368DR,4562,5042,11764,01.133,551
2022-09-30T06:33:03,42.805,6.029,CST-1368DR,4562,5036,11749,01.138,551
2022-09-30T06:36:05,42.805,6.029,CST-1368DR,4562,5035,11746,01.139,551
2022-09-30T06:39:06,42.805,6.029,CST-1368DR,4562,5036,11750,01.138,551
2022-09-30T06:42:08,42.805,6.029,CST-1368DR,4562,5040,11757,01.135,551
2022-09-30T06:45:10,42.805,6.029,CST-1368DR,4562,5039,11756,01.136,551
2022-09-30T06:48:11,42.805,6.029,CST-1368DR,4562,5035,11747,01.139,551
2022-09-30T06:51:13,42.805,6.029,CST-1368DR,4562,5038,11753,01.137,551
2022-09-30T06:54:14,42.805,6.029,CST-1368DR,4562,5045,11769,01.131,551
2022-09-30T06:57:16,42.805,6.029,CST-1368DR,4562,5039,11755,01.136,551
2022-09-30T07:00:17,42.805,6.029,CST-1368DR,4562,5036,11749,01.138,551
2022-09-30T07:03:19,42.805,6.029,CST-1368DR,4562,5037,11752,01.137,551
2022-09-30T07:06:21,42.805,6.029,CST-1368DR,4562,5043,11766,01.132,551
2022-09-30T07:09:22,42.805,6.029,CST-1368DR,4562,5053,11788,01.125,551
2022-09-30T07:12:24,42.805,6.029,CST-1368DR,4562,5054,11791,01.124,551
2022-09-30T07:15:25,42.805,6.029,CST-1368DR,4562,5042,11763,01.133,551
2022-09-30T07:18:27,42.805,6.029,CST-1368DR,4562,5060,11805,01.119,551
2022-09-30T07:21:29,42.805,6.029,CST-1368DR,4562,5043,11765,01.133,551
2022-09-30T07:24:30,42.805,6.029,CST-1368DR,4562,5043,11766,01.132,551
2022-09-30T07:27:32,42.805,6.029,CST-1368DR,4562,5048,11777,01.129,551
2022-09-30T07:30:33,42.805,6.029,CST-1368DR,4562,5038,11753,01.137,551
2022-09-30T07:33:35,42.805,6.029,CST-1368DR,4562,5039,11755,01.136,551
2022-09-30T07:36:36,42.805,6.029,CST-1368DR,4562,5044,11768,01.132,551
2022-09-30T07:39:38,42.805,6.029,CST-1368DR,4562,5051,11785,01.126,551
2022-09-30T07:42:40,42.805,6.029,CST-1368DR,4562,5053,11789,01.125,551
2022-09-30T07:45:41,42.805,6.029,CST-1368DR,4562,5043,11764,01.133,551
2022-09-30T07:48:43,42.805,6.029,CST-1368DR,4562,5040,11757,01.135,551
2022-09-30T07:51:44,42.805,6.029,CST-1368DR,4562,5042,11764,01.133,551
2022-09-30T07:54:46,42.805,6.029,CST-1368DR,4562,5046,11773,01.130,551
2022-09-30T07:57:48,42.805,6.029,CST-1368DR,4562,5045,11769,01.131,551
2022-09-30T08:00:49,42.805,6.029,CST-1368DR,4562,5051,11784,01.126,551
2022-09-30T08:03:51,42.805,6.029,CST-1368DR,4562,5040,11759,01.135,551
2022-09-30T08:06:52,42.805,6.029,CST-1368DR,4562,5049,11780,01.128,551
2022-09-30T08:09:54,42.805,6.029,CST-1368DR,4562,5046,11773,01.130,551
2022-09-30T08:12:55,42.805,6.029,CST-1368DR,4562,5047,11775,01.129,551
2022-09-30T08:15:57,42.805,6.029,CST-1368DR,4562,5045,11770,01.131,551
2022-09-30T08:18:59,42.805,6.029,CST-1368DR,4562,5054,11791,01.124,551
2022-09-30T08:22:00,42.805,6.029,CST-1368DR,4562,5043,11766,01.132,551
2022-09-30T08:25:02,42.805,6.029,CST-1368DR,4562,5040,11759,01.135,551
2022-09-30T08:28:03,42.805,6.029,CST-1368DR,4562,5050,11782,01.127,551
2022-09-30T08:31:05,42.805,6.029,CST-1368DR,4562,5033,11742,01.140,551
2022-09-30T08:34:06,42.805,6.029,CST-1368DR,4562,5043,11766,01.132,551
2022-09-30T08:37:08,42.805,6.029,CST-1368DR,4562,5041,11761,01.134,551
2022-09-30T08:40:10,42.805,6.029,CST-1368DR,4562,5043,11764,01.133,551
2022-09-30T08:43:11,42.805,6.029,CST-1368DR,4562,5039,11756,01.136,551
2022-09-30T08:46:13,42.805,6.029,CST-1368DR,4562,5051,11784,01.126,551
2022-09-30T08:49:14,42.805,6.029,CST-1368DR,4562,5038,11754,01.136,551
2022-09-30T08:52:16,42.805,6.029,CST-1368DR,4562,5028,11731,01.144,551
2022-09-30T08:55:18,42.805,6.029,CST-1368DR,4562,5034,11745,01.139,551
2022-09-30T08:58:19,42.805,6.029,CST-1368DR,4562,5043,11766,01.132,551
2022-09-30T09:01:21,42.805,6.029,CST-1368DR,4562,5058,11799,01.121,551
2022-09-30T09:04:22,42.805,6.029,CST-1368DR,4562,5041,11761,01.134,551
2022-09-30T09:07:24,42.805,6.029,CST-1368DR,4562,5036,11750,01.138,551
2022-09-30T09:10:25,42.805,6.029,CST-1368DR,4562,5042,11763,01.133,551
2022-09-30T09:13:27,42.805,6.029,CST-1368DR,4562,5039,11756,01.136,551
2022-09-30T09:16:29,42.805,6.029,CST-1368DR,4562,5038,11753,01.137,551
2022-09-30T09:19:30,42.805,6.029,CST-1368DR,4562,5046,11773,01.130,551
2022-09-30T09:22:32,42.805,6.029,CST-1368DR,4562,5040,11757,01.135,551
2022-09-30T09:25:33,42.805,6.029,CST-1368DR,4562,5040,11757,01.135,551
2022-09-30T09:28:35,42.805,6.029,CST-1368DR,4562,5044,11768,01.132,551
2022-09-30T09:31:36,42.805,6.029,CST-1368DR,4562,5035,11747,01.139,551
2022-09-30T09:34:38,42.805,6.029,CST-1368DR,4562,5040,11759,01.135,551
2022-09-30T09:37:40,42.805,6.029,CST-1368DR,4562,5041,11760,01.134,551
2022-09-30T09:40:41,42.805,6.029,CST-1368DR,4562,5061,11806,01.119,551
2022-09-30T09:43:43,42.805,6.029,CST-1368DR,4562,5057,11798,01.121,551
2022-09-30T09:46:44,42.805,6.029,CST-1368DR,4562,5058,11799,01.121,551
2022-09-30T09:49:46,42.805,6.029,CST-1368DR,4562,5056,11795,01.122,551
2022-09-30T09:52:48,42.805,6.029,CST-1368DR,4562,5057,11799,01.121,551
2022-09-30T09:55:49,42.805,6.029,CST-1368DR,4562,5058,11799,01.121,551
2022-09-30T09:58:51,42.805,6.029,CST-1368DR,4562,5057,11799,01.121,551
2022-09-30T10:01:52,42.805,6.029,CST-1368DR,4562,5057,11798,01.121,551
2022-09-30T10:04:54,42.805,6.029,CST-1368DR,4562,5058,11800,01.121,551
2022-09-30T10:07:55,42.805,6.029,CST-1368DR,4562,5058,11799,01.121,551
2022-09-30T10:10:57,42.805,6.029,CST-1368DR,4562,5057,11797,01.122,551
2022-09-30T10:13:59,42.805,6.029,CST-1368DR,4562,5062,11810,01.117,551
2022-09-30T10:17:00,42.805,6.029,CST-1368DR,4562,5056,11795,01.122,551
2022-09-30T10:20:02,42.805,6.029,CST-1368DR,4562,5057,11798,01.121,551
2022-09-30T10:23:03,42.805,6.029,CST-1368DR,4562,5060,11804,01.119,551
2022-09-30T10:26:05,42.805,6.029,CST-1368DR,4562,5059,11802,01.120,551
2022-09-30T10:29:07,42.805,6.029,CST-1368DR,4562,5057,11798,01.121,551
2022-09-30T10:32:08,42.805,6.029,CST-1368DR,4562,5057,11798,01.121,551
2022-09-30T10:35:10,42.805,6.029,CST-1368DR,4562,5061,11807,01.118,551
2022-09-30T10:38:11,42.805,6.029,CST-1368DR,4562,5067,11822,01.113,551
2022-09-30T10:41:13,42.805,6.029,CST-1368DR,4562,5061,11808,01.118,551
2022-09-30T10:44:14,42.805,6.029,CST-1368DR,4562,5061,11808,01.118,551
2022-09-30T10:47:16,42.805,6.029,CST-1368DR,4562,5062,11809,01.118,551
2022-09-30T10:50:18,42.805,6.029,CST-1368DR,4562,5060,11805,01.119,551
2022-09-30T10:53:19,42.805,6.029,CST-1368DR,4562,5061,11808,01.118,551
2022-09-30T10:56:21,42.805,6.029,CST-1368DR,4562,5060,11804,01.119,551
2022-09-30T10:59:22,42.805,6.029,CST-1368DR,4562,5058,11801,01.120,551
2022-09-30T11:02:24,42.805,6.029,CST-1368DR,4562,5061,11807,01.118,551
2022-09-30T11:05:25,42.805,6.029,CST-1368DR,4562,5056,11796,01.122,551
2022-09-30T11:08:27,42.805,6.029,CST-1368DR,4562,5061,11807,01.118,551
2022-09-30T11:11:29,42.805,6.029,CST-1368DR,4562,5054,11790,01.124,551
2022-09-30T11:14:30,42.805,6.029,CST-1368DR,4562,5058,11799,01.121,551
2022-09-30T11:17:32,42.805,6.029,CST-1368DR,4562,5061,11806,01.119,551
2022-09-30T11:20:33,42.805,6.029,CST-1368DR,4562,5054,11792,01.123,551
2022-09-30T11:23:35,42.805,6.029,CST-1368DR,4562,5057,11798,01.121,551
2022-09-30T11:26:37,42.805,6.029,CST-1368DR,4562,5061,11806,01.119,551
2022-09-30T11:29:38,42.805,6.029,CST-1368DR,4562,5063,11811,01.117,551
2022-09-30T11:32:40,42.805,6.029,CST-1368DR,4562,5061,11806,01.119,551
2022-09-30T11:35:41,42.805,6.029,CST-1368DR,4562,5058,11801,01.120,551
2022-09-30T11:38:43,42.805,6.029,CST-1368DR,4562,5060,11804,01.119,551
2022-09-30T11:41:44,42.805,6.029,CST-1368DR,4562,5060,11806,01.119,551
2022-09-30T11:44:46,42.805,6.029,CST-1368DR,4562,5060,11804,01.119,551
2022-09-30T11:47:48,42.805,6.029,CST-1368DR,4562,5058,11801,01.120,551
2022-09-30T11:50:49,42.805,6.029,CST-1368DR,4562,5068,11824,01.113,551
2022-09-30T11:53:51,42.805,6.029,CST-1368DR,4562,5067,11822,01.113,551
2022-09-30T11:56:52,42.805,6.029,CST-1368DR,4562,5066,11819,01.114,551
2022-09-30T11:59:54,42.805,6.029,CST-1368DR,4562,5060,11805,01.119,551
2022-09-30T12:02:55,42.805,6.029,CST-1368DR,4562,5061,11808,01.118,551
2022-09-30T12:05:57,42.805,6.029,CST-1368DR,4562,5066,11818,01.115,551
2022-09-30T12:08:59,42.805,6.029,CST-1368DR,4562,5064,11815,01.116,551
2022-09-30T12:12:00,42.805,6.029,CST-1368DR,4562,5066,11819,01.114,551
2022-09-30T12:15:02,42.805,6.029,CST-1368DR,4562,5063,11813,01.116,551
2022-09-30T12:18:03,42.805,6.029,CST-1368DR,4562,5066,11819,01.114,551
2022-09-30T12:21:05,42.805,6.029,CST-1368DR,4562,5064,11814,01.116,551
2022-09-30T12:24:07,42.805,6.029,CST-1368DR,4562,5063,11813,01.116,551
2022-09-30T12:27:08,42.805,6.029,CST-1368DR,4562,5067,11820,01.114,551
2022-09-30T12:30:10,42.805,6.029,CST-1368DR,4562,5068,11824,01.113,551
2022-09-30T12:33:11,42.805,6.029,CST-1368DR,4562,5065,11817,01.115,551
2022-09-30T12:36:13,42.805,6.029,CST-1368DR,4562,5065,11816,01.115,551
2022-09-30T12:39:14,42.805,6.029,CST-1368DR,4562,5064,11815,01.116,551
2022-09-30T12:42:16,42.805,6.029,CST-1368DR,4562,5060,11806,01.119,551
2022-09-30T12:45:18,42.805,6.029,CST-1368DR,4562,5068,11824,01.113,551
2022-09-30T12:48:19,42.805,6.029,CST-1368DR,4562,5060,11804,01.119,551
2022-09-30T12:51:21,42.805,6.029,CST-1368DR,4562,5066,11819,01.114,551
2022-09-30T12:54:22,42.805,6.029,CST-1368DR,4562,5063,11812,01.117,551
2022-09-30T12:57:24,42.805,6.029,CST-1368DR,4562,5063,11811,01.117,551
2022-09-30T13:00:25,42.805,6.029,CST-1368DR,4562,5059,11803,01.120,551
2022-09-30T13:03:27,42.805,6.029,CST-1368DR,4562,5058,11801,01.120,551
2022-09-30T13:06:29,42.805,6.029,CST-1368DR,4562,5057,11797,01.122,551
2022-09-30T13:09:30,42.805,6.029,CST-1368DR,4562,5054,11791,01.124,551
2022-09-30T13:12:32,42.805,6.029,CST-1368DR,4562,5062,11810,01.117,551
2022-09-30T13:15:33,42.805,6.029,CST-1368DR,4562,5060,11806,01.119,551
2022-09-30T13:18:35,42.805,6.029,CST-1368DR,4562,5064,11813,01.116,551
2022-09-30T13:21:37,42.805,6.029,CST-1368DR,4562,5062,11810,01.117,551
2022-09-30T13:24:38,42.805,6.029,CST-1368DR,4562,5060,11805,01.119,551
2022-09-30T13:27:40,42.805,6.029,CST-1368DR,4562,5066,11820,01.114,551
2022-09-30T13:30:41,42.805,6.029,CST-1368DR,4562,5065,11816,01.115,551
2022-09-30T13:33:43,42.805,6.029,CST-1368DR,4562,5061,11808,01.118,551
2022-09-30T13:36:44,42.805,6.029,CST-1368DR,4562,5064,11815,01.116,551
2022-09-30T13:39:46,42.805,6.029,CST-1368DR,4562,5068,11823,01.113,551
2022-09-30T13:42:48,42.805,6.029,CST-1368DR,4562,5062,11810,01.117,551
2022-09-30T13:45:49,42.805,6.029,CST-1368DR,4562,5066,11819,01.114,551
2022-09-30T13:48:51,42.805,6.029,CST-1368DR,4562,5065,11816,01.115,551
2022-09-30T13:51:52,42.805,6.029,CST-1368DR,4562,5063,11812,01.117,551
2022-09-30T13:54:54,42.805,6.029,CST-1368DR,4562,5064,11815,01.116,551
2022-09-30T13:57:55,42.805,6.029,CST-1368DR,4562,5063,11813,01.116,551
2022-09-30T14:00:57,42.805,6.029,CST-1368DR,4562,5058,11799,01.121,551
2022-09-30T14:03:59,42.805,6.029,CST-1368DR,4562,5061,11808,01.118,551
2022-09-30T14:07:00,42.805,6.029,CST-1368DR,4562,5063,11813,01.116,551
2022-09-30T14:10:02,42.805,6.029,CST-1368DR,4562,5056,11795,01.122,551
2022-09-30T14:13:03,42.805,6.029,CST-1368DR,4562,5053,11788,01.125,551
2022-09-30T14:16:05,42.805,6.029,CST-1368DR,4562,5062,11810,01.117,551
2022-09-30T14:19:07,42.805,6.029,CST-1368DR,4562,5070,11829,01.111,551
2022-09-30T14:22:08,42.805,6.029,CST-1368DR,4562,5066,11818,01.115,551
2022-09-30T14:25:10,42.805,6.029,CST-1368DR,4562,5068,11824,01.113,551
2022-09-30T14:28:11,42.805,6.029,CST-1368DR,4562,5061,11807,01.118,551
2022-09-30T14:31:13,42.805,6.029,CST-1368DR,4562,5054,11791,01.124,551
2022-09-30T14:34:14,42.805,6.029,CST-1368DR,4562,5061,11806,01.119,551
2022-09-30T14:37:16,42.805,6.029,CST-1368DR,4562,5060,11806,01.119,551
2022-09-30T14:40:18,42.805,6.029,CST-1368DR,4562,5051,11784,01.126,551
2022-09-30T14:43:19,42.805,6.029,CST-1368DR,4562,5063,11811,01.117,551
2022-09-30T14:46:21,42.805,6.029,CST-1368DR,4562,5064,11815,01.116,551
2022-09-30T14:49:22,42.805,6.029,CST-1368DR,4562,5058,11799,01.121,551
2022-09-30T14:52:24,42.805,6.029,CST-1368DR,4562,5054,11792,01.123,551
2022-09-30T14:55:26,42.805,6.029,CST-1368DR,4562,5061,11806,01.119,551
2022-09-30T14:58:27,42.805,6.029,CST-1368DR,4562,5060,11805,01.119,551
2022-09-30T15:01:29,42.805,6.029,CST-1368DR,4562,5066,11818,01.115,551
2022-09-30T15:04:30,42.805,6.029,CST-1368DR,4562,5060,11806,01.119,551
2022-09-30T15:07:32,42.805,6.029,CST-1368DR,4562,5061,11808,01.118,551
2022-09-30T15:10:33,42.805,6.029,CST-1368DR,4562,5060,11806,01.119,551
2022-09-30T15:13:35,42.805,6.029,CST-1368DR,4562,5062,11809,01.118,551
2022-09-30T15:16:37,42.805,6.029,CST-1368DR,4562,5069,11827,01.112,551
2022-09-30T15:19:38,42.805,6.029,CST-1368DR,4562,5056,11795,01.122,551
2022-09-30T15:22:40,42.805,6.029,CST-1368DR,4562,5059,11803,01.120,551
2022-09-30T15:25:41,42.805,6.029,CST-1368DR,4562,5058,11801,01.120,551
2022-09-30T15:28:43,42.805,6.029,CST-1368DR,4562,5059,11802,01.120,551
2022-09-30T15:31:44,42.805,6.029,CST-1368DR,4562,5059,11803,01.120,551
2022-09-30T15:34:46,42.805,6.029,CST-1368DR,4562,5058,11801,01.120,551
2022-09-30T15:37:48,42.805,6.029,CST-1368DR,4562,5058,11800,01.121,551
2022-09-30T15:40:49,42.805,6.029,CST-1368DR,4562,5058,11801,01.120,551
2022-09-30T15:43:51,42.805,6.029,CST-1368DR,4562,5052,11787,01.125,551
2022-09-30T15:46:52,42.805,6.029,CST-1368DR,4562,5060,11804,01.119,551
2022-09-30T15:49:54,42.805,6.029,CST-1368DR,4562,5060,11805,01.119,551
2022-09-30T15:52:55,42.805,6.029,CST-1368DR,4562,5059,11803,01.120,551
2022-09-30T15:55:57,42.805,6.029,CST-1368DR,4562,5059,11802,01.120,551
2022-09-30T15:58:59,42.805,6.029,CST-1368DR,4562,5051,11783,01.127,551
2022-09-30T16:02:00,42.805,6.029,CST-1368DR,4562,5057,11797,01.122,551
2022-09-30T16:05:02,42.805,6.029,CST-1368DR,4562,5058,11800,01.121,551
2022-09-30T16:08:03,42.805,6.029,CST-1368DR,4562,5056,11796,01.122,551
2022-09-30T16:11:05,42.805,6.029,CST-1368DR,4562,5058,11799,01.121,551
2022-09-30T16:14:07,42.805,6.029,CST-1368DR,4562,5060,11804,01.119,551
2022-09-30T16:17:08,42.805,6.029,CST-1368DR,4562,5060,11804,01.119,551
2022-09-30T16:20:10,42.805,6.029,CST-1368DR,4562,5059,11802,01.120,551
2022-09-30T16:23:11,42.805,6.029,CST-1368DR,4562,5061,11806,01.119,551
2022-09-30T16:26:13,42.805,6.029,CST-1368DR,4562,5057,11798,01.121,551
2022-09-30T16:29:14,42.805,6.029,CST-1368DR,4562,5059,11803,01.120,551
2022-09-30T16:32:16,42.805,6.029,CST-1368DR,4562,5057,11799,01.121,551
2022-09-30T16:35:18,42.805,6.029,CST-1368DR,4562,5061,11808,01.118,551
2022-09-30T16:38:19,42.805,6.029,CST-1368DR,4562,5058,11801,01.120,551